TimeCST,TemperatureF,Dew PointF,Humidity,Sea Level PressureIn,VisibilityMPH,Wind Direction,Wind SpeedMPH,Gust SpeedMPH,PrecipitationIn,Events,Conditions,WindDirDegrees,DateUTC
12:53 AM,25.0,19.0,78,30.30,10.0,WNW,9.2,-,N/A,,Clear,300,2012-11-28 06:53:00
1:26 AM,26.6,19.4,74,30.28,10.0,NW,9.2,-,N/A,,Mostly Cloudy,310,2012-11-28 07:26:00
1:53 AM,26.1,19.9,78,30.30,10.0,NW,12.7,18.4,N/A,,Overcast,320,2012-11-28 07:53:00
2:53 AM,27.0,19.9,75,30.32,10.0,NW,5.8,-,N/A,,Overcast,320,2012-11-28 08:53:00
3:53 AM,26.1,19.0,75,30.33,10.0,West,10.4,-,N/A,,Overcast,280,2012-11-28 09:53:00
4:53 AM,25.0,18.0,75,30.34,10.0,WNW,11.5,-,N/A,,Overcast,300,2012-11-28 10:53:00
5:53 AM,25.0,18.0,75,30.35,10.0,NW,11.5,-,N/A,,Overcast,310,2012-11-28 11:53:00
6:53 AM,26.1,19.0,75,30.37,10.0,NW,9.2,-,N/A,,Overcast,320,2012-11-28 12:53:00
7:53 AM,26.1,19.0,75,30.38,8.0,NW,8.1,-,N/A,,Overcast,320,2012-11-28 13:53:00
8:53 AM,27.0,19.0,72,30.38,9.0,WNW,4.6,-,N/A,,Overcast,290,2012-11-28 14:53:00
9:53 AM,28.0,19.9,72,30.38,10.0,West,4.6,-,N/A,,Overcast,280,2012-11-28 15:53:00
10:53 AM,30.9,19.9,64,30.38,10.0,West,5.8,-,N/A,,Partly Cloudy,260,2012-11-28 16:53:00
11:53 AM,32.0,19.9,61,30.35,10.0,WSW,4.6,-,N/A,,Clear,250,2012-11-28 17:53:00
12:53 PM,34.0,21.0,59,30.31,10.0,SSW,8.1,-,N/A,,Clear,200,2012-11-28 18:53:00
1:53 PM,34.0,21.0,59,30.28,10.0,SW,4.6,-,N/A,,Clear,230,2012-11-28 19:53:00
2:53 PM,34.0,21.0,59,30.25,10.0,SSW,5.8,-,N/A,,Clear,200,2012-11-28 20:53:00
3:53 PM,36.0,21.9,57,30.21,10.0,South,6.9,-,N/A,,Clear,170,2012-11-28 21:53:00
4:53 PM,32.0,21.0,64,30.20,10.0,South,6.9,-,N/A,,Clear,170,2012-11-28 22:53:00
5:53 PM,32.0,21.9,66,30.19,10.0,South,3.5,-,N/A,,Clear,170,2012-11-28 23:53:00
6:53 PM,30.9,21.9,69,30.19,10.0,SSE,5.8,-,N/A,,Clear,150,2012-11-29 00:53:00
7:53 PM,30.9,21.9,69,30.17,7.0,SSE,8.1,-,N/A,,Clear,150,2012-11-29 01:53:00
8:53 PM,32.0,23.0,69,30.17,9.0,SSE,6.9,-,N/A,,Clear,150,2012-11-29 02:53:00
9:53 PM,32.0,23.0,69,30.16,8.0,SE,4.6,-,N/A,,Clear,130,2012-11-29 03:53:00
10:53 PM,32.0,23.0,69,30.14,8.0,SSE,4.6,-,N/A,,Mostly Cloudy,150,2012-11-29 04:53:00
11:53 PM,30.9,24.1,76,30.13,8.0,SSE,4.6,-,N/A,,Scattered Clouds,150,2012-11-29 05:53:00